Tracking 31029 objects as of 15-Jul-2025
HD Live streaming from Space Station
objects crossing your sky now

OPS 6431

Track OPS 6431 now!
10-day predictions
OPS 6431 is classified as:


NORAD ID: 8818
Int'l Code: 1976-038A
Perigee: 642.5 km
Apogee: 1,218.9 km
Inclination: 63.4 °
Period: 103.5 minutes
Semi major axis: 7301 km
RCS: Unknown
Launch date: April 30, 1976
Source: United States (US)
Launch site: AIR FORCE WESTERN TEST RANGE (AFWTR)
Your satellite tracking list
Your tracking list is empty




NASA's NSSDC Master Catalog

Two Line Element Set (TLE):
1  8818U 76038A   25196.23004516  .00000215  00000-0  13820-3 0  9998
2  8818  63.3549 297.2131 0394742 177.9350 182.3450 13.91445766 60334
Source of the keplerian elements: McCants